contact:dominique.lefevre@mio.osupytheas.fr, maurice.libes@osupytheas.fr, didier.mallarino@osupytheas.fr
Project:EMSO http://www.emso-fr.org/EMSO-France
Depth: 2436.0 m
Title:EMSO Ligure Ouest : Data MII capteur MICROCAT
DateTime_Computer,Latitude,Longitude,Temperature,Conductivity,Pressure,DateTime_Instrument
DateTime_Computer,Latitude,Longitude,degC,S m-1,dbar,DateTime_Instrument
2022-03-01T00:00:21Z,42.805,6.029,13.2996,4.60033,2470.404,2022-3-01T02:01:55Z
2022-03-01T00:03:24Z,42.805,6.029,13.3003,4.60037,2470.39,2022-3-01T02:04:58Z
2022-03-01T00:06:27Z,42.805,6.029,13.2998,4.60032,2470.427,2022-3-01T02:08:02Z
2022-03-01T00:09:30Z,42.805,6.029,13.3002,4.60031,2470.413,2022-3-01T02:11:05Z
2022-03-01T00:12:33Z,42.805,6.029,13.3000,4.60033,2470.38,2022-3-01T02:14:08Z
2022-03-01T00:15:36Z,42.805,6.029,13.3001,4.60039,2470.404,2022-3-01T02:17:11Z
2022-03-01T00:18:39Z,42.805,6.029,13.3000,4.60031,2470.39,2022-3-01T02:20:14Z
2022-03-01T00:21:42Z,42.805,6.029,13.2995,4.60034,2470.366,2022-3-01T02:23:17Z
2022-03-01T00:24:46Z,42.805,6.029,13.2998,4.60033,2470.39,2022-3-01T02:26:20Z
2022-03-01T00:27:49Z,42.805,6.029,13.2998,4.60029,2470.427,2022-3-01T02:29:23Z
2022-03-01T00:30:52Z,42.805,6.029,13.2997,4.60036,2470.404,2022-3-01T02:32:26Z
2022-03-01T00:33:55Z,42.805,6.029,13.2998,4.60029,2470.404,2022-3-01T02:35:30Z
2022-03-01T00:36:58Z,42.805,6.029,13.2998,4.60031,2470.413,2022-3-01T02:38:33Z
2022-03-01T00:40:01Z,42.805,6.029,13.2998,4.60029,2470.366,2022-3-01T02:41:36Z
2022-03-01T00:43:04Z,42.805,6.029,13.2998,4.60029,2470.39,2022-3-01T02:44:39Z
2022-03-01T00:46:07Z,42.805,6.029,13.2996,4.60030,2470.404,2022-3-01T02:47:42Z
2022-03-01T00:49:10Z,42.805,6.029,13.2996,4.60029,2470.39,2022-3-01T02:50:45Z
2022-03-01T00:52:14Z,42.805,6.029,13.2993,4.60033,2470.366,2022-3-01T02:53:48Z
2022-03-01T00:55:17Z,42.805,6.029,13.2998,4.60031,2470.404,2022-3-01T02:56:51Z
2022-03-01T00:58:20Z,42.805,6.029,13.3002,4.60033,2470.39,2022-3-01T02:59:55Z
2022-03-01T01:01:23Z,42.805,6.029,13.3000,4.60031,2470.39,2022-3-01T03:02:58Z
2022-03-01T01:04:26Z,42.805,6.029,13.2998,4.60031,2470.39,2022-3-01T03:06:01Z
2022-03-01T01:07:29Z,42.805,6.029,13.3000,4.60031,2470.39,2022-3-01T03:09:04Z
2022-03-01T01:10:32Z,42.805,6.029,13.2998,4.60028,2470.39,2022-3-01T03:12:07Z
2022-03-01T01:13:35Z,42.805,6.029,13.2996,4.60029,2470.38,2022-3-01T03:15:10Z
2022-03-01T01:16:39Z,42.805,6.029,13.2999,4.60037,2470.413,2022-3-01T03:18:13Z
2022-03-01T01:19:42Z,42.805,6.029,13.2997,4.60030,2470.404,2022-3-01T03:21:16Z
2022-03-01T01:22:45Z,42.805,6.029,13.2999,4.60031,2470.39,2022-3-01T03:24:19Z
2022-03-01T01:25:48Z,42.805,6.029,13.2997,4.60028,2470.39,2022-3-01T03:27:23Z
2022-03-01T01:28:51Z,42.805,6.029,13.2996,4.60028,2470.366,2022-3-01T03:30:26Z
2022-03-01T01:31:54Z,42.805,6.029,13.2998,4.60033,2470.404,2022-3-01T03:33:29Z
2022-03-01T01:34:57Z,42.805,6.029,13.3000,4.60028,2470.404,2022-3-01T03:36:32Z
2022-03-01T01:38:00Z,42.805,6.029,13.2998,4.60029,2470.427,2022-3-01T03:39:35Z
2022-03-01T01:41:03Z,42.805,6.029,13.3000,4.60028,2470.39,2022-3-01T03:42:38Z
2022-03-01T01:44:07Z,42.805,6.029,13.3000,4.60027,2470.497,2022-3-01T03:45:41Z
2022-03-01T01:47:10Z,42.805,6.029,13.2995,4.60030,2470.437,2022-3-01T03:48:44Z
2022-03-01T01:50:13Z,42.805,6.029,13.3001,4.60031,2470.404,2022-3-01T03:51:48Z
2022-03-01T01:53:16Z,42.805,6.029,13.3000,4.60029,2470.45,2022-3-01T03:54:51Z
2022-03-01T01:56:19Z,42.805,6.029,13.3001,4.60029,2470.437,2022-3-01T03:57:54Z
2022-03-01T01:59:22Z,42.805,6.029,13.2996,4.60031,2470.413,2022-3-01T04:00:57Z
2022-03-01T02:02:25Z,42.805,6.029,13.2993,4.60032,2470.413,2022-3-01T04:04:00Z
2022-03-01T02:05:28Z,42.805,6.029,13.3003,4.60033,2470.427,2022-3-01T04:07:03Z
2022-03-01T02:08:32Z,42.805,6.029,13.3001,4.60029,2470.45,2022-3-01T04:10:06Z
2022-03-01T02:11:35Z,42.805,6.029,13.2999,4.60031,2470.437,2022-3-01T04:13:09Z
2022-03-01T02:14:38Z,42.805,6.029,13.2999,4.60032,2470.46,2022-3-01T04:16:13Z
2022-03-01T02:17:41Z,42.805,6.029,13.2996,4.60029,2470.46,2022-3-01T04:19:16Z
2022-03-01T02:20:44Z,42.805,6.029,13.2996,4.60029,2470.46,2022-3-01T04:22:19Z
2022-03-01T02:23:47Z,42.805,6.029,13.3000,4.60028,2470.45,2022-3-01T04:25:22Z
2022-03-01T02:26:50Z,42.805,6.029,13.3001,4.60029,2470.437,2022-3-01T04:28:25Z
2022-03-01T02:29:53Z,42.805,6.029,13.3000,4.60034,2470.45,2022-3-01T04:31:28Z
2022-03-01T02:32:57Z,42.805,6.029,13.2998,4.60036,2470.46,2022-3-01T04:34:31Z
2022-03-01T02:36:00Z,42.805,6.029,13.3002,4.60031,2470.46,2022-3-01T04:37:34Z
2022-03-01T02:39:03Z,42.805,6.029,13.3000,4.60029,2470.46,2022-3-01T04:40:37Z
2022-03-01T02:42:06Z,42.805,6.029,13.2996,4.60029,2470.483,2022-3-01T04:43:41Z
2022-03-01T02:45:09Z,42.805,6.029,13.2998,4.60029,2470.437,2022-3-01T04:46:44Z
2022-03-01T02:48:12Z,42.805,6.029,13.2999,4.60031,2470.497,2022-3-01T04:49:47Z
2022-03-01T02:51:15Z,42.805,6.029,13.2999,4.60032,2470.46,2022-3-01T04:52:50Z
2022-03-01T02:54:18Z,42.805,6.029,13.3000,4.60028,2470.46,2022-3-01T04:55:53Z
2022-03-01T02:57:21Z,42.805,6.029,13.3000,4.60029,2470.46,2022-3-01T04:58:56Z
2022-03-01T03:00:25Z,42.805,6.029,13.2998,4.60035,2470.52,2022-3-01T05:01:59Z
2022-03-01T03:03:28Z,42.805,6.029,13.2998,4.60032,2470.507,2022-3-01T05:05:02Z
2022-03-01T03:06:31Z,42.805,6.029,13.2999,4.60031,2470.507,2022-3-01T05:08:06Z
2022-03-01T03:09:34Z,42.805,6.029,13.2998,4.60029,2470.483,2022-3-01T05:11:09Z
2022-03-01T03:12:37Z,42.805,6.029,13.2999,4.60029,2470.497,2022-3-01T05:14:12Z
2022-03-01T03:15:40Z,42.805,6.029,13.3000,4.60032,2470.507,2022-3-01T05:17:15Z
2022-03-01T03:18:43Z,42.805,6.029,13.3000,4.60031,2470.507,2022-3-01T05:20:18Z
2022-03-01T03:21:46Z,42.805,6.029,13.2998,4.60031,2470.53,2022-3-01T05:23:21Z
2022-03-01T03:24:50Z,42.805,6.029,13.3002,4.60035,2470.53,2022-3-01T05:26:24Z
2022-03-01T03:27:53Z,42.805,6.029,13.3000,4.60029,2470.52,2022-3-01T05:29:27Z
2022-03-01T03:30:56Z,42.805,6.029,13.2999,4.60031,2470.553,2022-3-01T05:32:30Z
2022-03-01T03:33:59Z,42.805,6.029,13.2998,4.60030,2470.52,2022-3-01T05:35:34Z
2022-03-01T03:37:02Z,42.805,6.029,13.3004,4.60029,2470.544,2022-3-01T05:38:37Z
2022-03-01T03:40:05Z,42.805,6.029,13.2998,4.60039,2470.553,2022-3-01T05:41:40Z
2022-03-01T03:43:08Z,42.805,6.029,13.2998,4.60038,2470.567,2022-3-01T05:44:43Z
2022-03-01T03:46:11Z,42.805,6.029,13.2999,4.60028,2470.53,2022-3-01T05:47:46Z
2022-03-01T03:49:14Z,42.805,6.029,13.3003,4.60033,2470.53,2022-3-01T05:50:49Z
2022-03-01T03:52:18Z,42.805,6.029,13.2997,4.60032,2470.567,2022-3-01T05:53:52Z
2022-03-01T03:55:21Z,42.805,6.029,13.2997,4.60029,2470.567,2022-3-01T05:56:55Z
2022-03-01T03:58:24Z,42.805,6.029,13.3002,4.60031,2470.53,2022-3-01T05:59:59Z
2022-03-01T04:01:27Z,42.805,6.029,13.2998,4.60035,2470.53,2022-3-01T06:03:02Z
2022-03-01T04:04:30Z,42.805,6.029,13.3001,4.60031,2470.577,2022-3-01T06:06:05Z
2022-03-01T04:07:33Z,42.805,6.029,13.2995,4.60029,2470.591,2022-3-01T06:09:08Z
2022-03-01T04:10:36Z,42.805,6.029,13.2997,4.60031,2470.567,2022-3-01T06:12:11Z
2022-03-01T04:13:39Z,42.805,6.029,13.2996,4.60033,2470.567,2022-3-01T06:15:14Z
2022-03-01T04:16:43Z,42.805,6.029,13.2997,4.60029,2470.577,2022-3-01T06:18:17Z
2022-03-01T04:19:46Z,42.805,6.029,13.2998,4.60030,2470.577,2022-3-01T06:21:20Z
2022-03-01T04:22:49Z,42.805,6.029,13.2999,4.60032,2470.567,2022-3-01T06:24:23Z
2022-03-01T04:25:52Z,42.805,6.029,13.2998,4.60031,2470.553,2022-3-01T06:27:27Z
2022-03-01T04:28:55Z,42.805,6.029,13.3001,4.60029,2470.591,2022-3-01T06:30:30Z
2022-03-01T04:31:58Z,42.805,6.029,13.3004,4.60029,2470.6,2022-3-01T06:33:33Z
2022-03-01T04:35:01Z,42.805,6.029,13.3003,4.60032,2470.624,2022-3-01T06:36:36Z
2022-03-01T04:38:04Z,42.805,6.029,13.3002,4.60033,2470.624,2022-3-01T06:39:39Z
2022-03-01T04:41:07Z,42.805,6.029,13.3000,4.60031,2470.553,2022-3-01T06:42:42Z
2022-03-01T04:44:11Z,42.805,6.029,13.2998,4.60033,2470.624,2022-3-01T06:45:45Z
2022-03-01T04:47:14Z,42.805,6.029,13.3000,4.60035,2470.624,2022-3-01T06:48:48Z
2022-03-01T04:50:17Z,42.805,6.029,13.3001,4.60035,2470.646,2022-3-01T06:51:52Z
2022-03-01T04:53:20Z,42.805,6.029,13.2997,4.60031,2470.591,2022-3-01T06:54:55Z
2022-03-01T04:56:23Z,42.805,6.029,13.2996,4.60031,2470.624,2022-3-01T06:57:58Z
2022-03-01T04:59:26Z,42.805,6.029,13.2999,4.60031,2470.624,2022-3-01T07:01:01Z
2022-03-01T05:02:29Z,42.805,6.029,13.3001,4.60032,2470.624,2022-3-01T07:04:04Z
2022-03-01T05:05:32Z,42.805,6.029,13.3001,4.60030,2470.624,2022-3-01T07:07:07Z
2022-03-01T05:08:36Z,42.805,6.029,13.3001,4.60029,2470.624,2022-3-01T07:10:10Z
2022-03-01T05:11:39Z,42.805,6.029,13.3004,4.60029,2470.624,2022-3-01T07:13:13Z
2022-03-01T05:14:42Z,42.805,6.029,13.3002,4.60032,2470.637,2022-3-01T07:16:16Z
2022-03-01T05:17:45Z,42.805,6.029,13.3003,4.60030,2470.624,2022-3-01T07:19:20Z
2022-03-01T05:20:48Z,42.805,6.029,13.2999,4.60031,2470.637,2022-3-01T07:22:23Z
2022-03-01T05:23:51Z,42.805,6.029,13.2999,4.60033,2470.624,2022-3-01T07:25:26Z
2022-03-01T05:26:54Z,42.805,6.029,13.3001,4.60032,2470.646,2022-3-01T07:28:29Z
2022-03-01T05:29:57Z,42.805,6.029,13.3006,4.60031,2470.67,2022-3-01T07:31:32Z
2022-03-01T05:33:00Z,42.805,6.029,13.3004,4.60029,2470.661,2022-3-01T07:34:35Z
2022-03-01T05:36:04Z,42.805,6.029,13.2998,4.60032,2470.6,2022-3-01T07:37:38Z
2022-03-01T05:39:07Z,42.805,6.029,13.3000,4.60032,2470.67,2022-3-01T07:40:41Z
2022-03-01T05:42:10Z,42.805,6.029,13.3003,4.60030,2470.624,2022-3-01T07:43:45Z
2022-03-01T05:45:13Z,42.805,6.029,13.3001,4.60031,2470.646,2022-3-01T07:46:48Z
2022-03-01T05:48:16Z,42.805,6.029,13.3004,4.60032,2470.624,2022-3-01T07:49:51Z
2022-03-01T05:51:19Z,42.805,6.029,13.3004,4.60036,2470.661,2022-3-01T07:52:54Z
2022-03-01T05:54:22Z,42.805,6.029,13.3000,4.60031,2470.661,2022-3-01T07:55:57Z
2022-03-01T05:57:25Z,42.805,6.029,13.2998,4.60036,2470.661,2022-3-01T07:59:00Z
2022-03-01T06:00:28Z,42.805,6.029,13.2994,4.60039,2470.637,2022-3-01T08:02:03Z
2022-03-01T06:03:32Z,42.805,6.029,13.2998,4.60036,2470.646,2022-3-01T08:05:06Z
2022-03-01T06:06:35Z,42.805,6.029,13.2998,4.60032,2470.661,2022-3-01T08:08:09Z
2022-03-01T06:09:38Z,42.805,6.029,13.3004,4.60031,2470.67,2022-3-01T08:11:13Z
2022-03-01T06:12:41Z,42.805,6.029,13.3004,4.60031,2470.661,2022-3-01T08:14:16Z
2022-03-01T06:15:44Z,42.805,6.029,13.2999,4.60033,2470.6,2022-3-01T08:17:19Z
2022-03-01T06:18:47Z,42.805,6.029,13.3001,4.60029,2470.661,2022-3-01T08:20:22Z
2022-03-01T06:21:50Z,42.805,6.029,13.3000,4.60029,2470.646,2022-3-01T08:23:25Z
2022-03-01T06:24:53Z,42.805,6.029,13.3001,4.60031,2470.646,2022-3-01T08:26:28Z
2022-03-01T06:27:57Z,42.805,6.029,13.2998,4.60033,2470.646,2022-3-01T08:29:31Z
2022-03-01T06:31:00Z,42.805,6.029,13.2998,4.60039,2470.646,2022-3-01T08:32:34Z
2022-03-01T06:34:03Z,42.805,6.029,13.3001,4.60033,2470.646,2022-3-01T08:35:38Z
2022-03-01T06:37:06Z,42.805,6.029,13.2998,4.60033,2470.646,2022-3-01T08:38:41Z
2022-03-01T06:40:09Z,42.805,6.029,13.2998,4.60034,2470.684,2022-3-01T08:41:44Z
2022-03-01T06:43:12Z,42.805,6.029,13.2994,4.60031,2470.661,2022-3-01T08:44:47Z
2022-03-01T06:46:15Z,42.805,6.029,13.2998,4.60031,2470.661,2022-3-01T08:47:50Z
2022-03-01T06:49:18Z,42.805,6.029,13.3002,4.60029,2470.684,2022-3-01T08:50:53Z
2022-03-01T06:52:22Z,42.805,6.029,13.2997,4.60033,2470.637,2022-3-01T08:53:56Z
2022-03-01T06:55:25Z,42.805,6.029,13.2995,4.60032,2470.67,2022-3-01T08:56:59Z
2022-03-01T06:58:28Z,42.805,6.029,13.3001,4.60034,2470.646,2022-3-01T09:00:02Z
2022-03-01T07:01:31Z,42.805,6.029,13.3001,4.60032,2470.661,2022-3-01T09:03:06Z
2022-03-01T07:04:34Z,42.805,6.029,13.2995,4.60031,2470.646,2022-3-01T09:06:09Z
2022-03-01T07:07:37Z,42.805,6.029,13.2995,4.60036,2470.67,2022-3-01T09:09:12Z
2022-03-01T07:10:40Z,42.805,6.029,13.3000,4.60041,2470.661,2022-3-01T09:12:15Z
2022-03-01T07:13:43Z,42.805,6.029,13.2996,4.60035,2470.646,2022-3-01T09:15:18Z
2022-03-01T07:16:46Z,42.805,6.029,13.2999,4.60034,2470.646,2022-3-01T09:18:21Z
2022-03-01T07:19:50Z,42.805,6.029,13.2999,4.60039,2470.693,2022-3-01T09:21:24Z
2022-03-01T07:22:53Z,42.805,6.029,13.2994,4.60031,2470.661,2022-3-01T09:24:27Z
2022-03-01T07:25:56Z,42.805,6.029,13.2998,4.60037,2470.646,2022-3-01T09:27:31Z
2022-03-01T07:28:59Z,42.805,6.029,13.3000,4.60035,2470.707,2022-3-01T09:30:34Z
2022-03-01T07:32:02Z,42.805,6.029,13.3000,4.60033,2470.646,2022-3-01T09:33:37Z
2022-03-01T07:35:05Z,42.805,6.029,13.3000,4.60033,2470.6,2022-3-01T09:36:40Z
2022-03-01T07:38:08Z,42.805,6.029,13.3000,4.60031,2470.67,2022-3-01T09:39:43Z
2022-03-01T07:41:11Z,42.805,6.029,13.2997,4.60033,2470.67,2022-3-01T09:42:46Z
2022-03-01T07:44:15Z,42.805,6.029,13.2995,4.60033,2470.637,2022-3-01T09:45:49Z
2022-03-01T07:47:18Z,42.805,6.029,13.2996,4.60031,2470.661,2022-3-01T09:48:52Z
2022-03-01T07:50:21Z,42.805,6.029,13.2993,4.60034,2470.646,2022-3-01T09:51:55Z
2022-03-01T07:53:24Z,42.805,6.029,13.2995,4.60033,2470.646,2022-3-01T09:54:59Z
2022-03-01T07:56:27Z,42.805,6.029,13.2996,4.60034,2470.693,2022-3-01T09:58:02Z
2022-03-01T07:59:30Z,42.805,6.029,13.2998,4.60035,2470.707,2022-3-01T10:01:05Z
2022-03-01T08:02:33Z,42.805,6.029,13.2996,4.60033,2470.646,2022-3-01T10:04:08Z
2022-03-01T08:05:36Z,42.805,6.029,13.3002,4.60033,2470.646,2022-3-01T10:07:11Z
2022-03-01T08:08:39Z,42.805,6.029,13.2993,4.60034,2470.67,2022-3-01T10:10:14Z
2022-03-01T08:11:43Z,42.805,6.029,13.3000,4.60031,2470.684,2022-3-01T10:13:17Z
2022-03-01T08:14:46Z,42.805,6.029,13.2997,4.60035,2470.646,2022-3-01T10:16:20Z
2022-03-01T08:17:49Z,42.805,6.029,13.2998,4.60034,2470.661,2022-3-01T10:19:24Z
2022-03-01T08:20:52Z,42.805,6.029,13.2999,4.60033,2470.661,2022-3-01T10:22:27Z
2022-03-01T08:23:55Z,42.805,6.029,13.3000,4.60035,2470.646,2022-3-01T10:25:30Z
2022-03-01T08:26:58Z,42.805,6.029,13.2998,4.60033,2470.67,2022-3-01T10:28:33Z
2022-03-01T08:30:01Z,42.805,6.029,13.2997,4.60034,2470.6,2022-3-01T10:31:36Z
2022-03-01T08:33:04Z,42.805,6.029,13.2999,4.60033,2470.637,2022-3-01T10:34:39Z
2022-03-01T08:36:08Z,42.805,6.029,13.2999,4.60037,2470.661,2022-3-01T10:37:42Z
2022-03-01T08:39:11Z,42.805,6.029,13.2998,4.60033,2470.624,2022-3-01T10:40:45Z
2022-03-01T08:42:14Z,42.805,6.029,13.2996,4.60033,2470.624,2022-3-01T10:43:49Z
2022-03-01T08:45:17Z,42.805,6.029,13.2994,4.60031,2470.61,2022-3-01T10:46:52Z
2022-03-01T08:48:20Z,42.805,6.029,13.2998,4.60032,2470.637,2022-3-01T10:49:55Z
2022-03-01T08:51:23Z,42.805,6.029,13.2996,4.60034,2470.61,2022-3-01T10:52:58Z
2022-03-01T08:54:26Z,42.805,6.029,13.3000,4.60036,2470.624,2022-3-01T10:56:01Z
2022-03-01T08:57:29Z,42.805,6.029,13.2995,4.60036,2470.624,2022-3-01T10:59:04Z
2022-03-01T09:00:32Z,42.805,6.029,13.2998,4.60033,2470.661,2022-3-01T11:02:07Z
2022-03-01T09:03:36Z,42.805,6.029,13.2999,4.60031,2470.624,2022-3-01T11:05:10Z
2022-03-01T09:06:39Z,42.805,6.029,13.3000,4.60031,2470.646,2022-3-01T11:08:13Z
2022-03-01T09:09:42Z,42.805,6.029,13.2997,4.60034,2470.6,2022-3-01T11:11:17Z
2022-03-01T09:12:45Z,42.805,6.029,13.2999,4.60033,2470.646,2022-3-01T11:14:20Z
2022-03-01T09:15:48Z,42.805,6.029,13.2999,4.60032,2470.624,2022-3-01T11:17:23Z
2022-03-01T09:18:51Z,42.805,6.029,13.2996,4.60036,2470.624,2022-3-01T11:20:26Z
2022-03-01T09:21:54Z,42.805,6.029,13.2998,4.60033,2470.6,2022-3-01T11:23:29Z
2022-03-01T09:24:58Z,42.805,6.029,13.2996,4.60031,2470.6,2022-3-01T11:26:32Z
2022-03-01T09:28:01Z,42.805,6.029,13.2993,4.60033,2470.6,2022-3-01T11:29:35Z
2022-03-01T09:31:04Z,42.805,6.029,13.2998,4.60031,2470.624,2022-3-01T11:32:38Z
2022-03-01T09:34:07Z,42.805,6.029,13.2997,4.60034,2470.614,2022-3-01T11:35:42Z
2022-03-01T09:37:10Z,42.805,6.029,13.3000,4.60033,2470.6,2022-3-01T11:38:45Z
2022-03-01T09:40:13Z,42.805,6.029,13.3000,4.60033,2470.6,2022-3-01T11:41:48Z
2022-03-01T09:43:16Z,42.805,6.029,13.2996,4.60032,2470.6,2022-3-01T11:44:51Z
2022-03-01T09:46:19Z,42.805,6.029,13.3003,4.60033,2470.577,2022-3-01T11:47:54Z
2022-03-01T09:49:22Z,42.805,6.029,13.2996,4.60031,2470.577,2022-3-01T11:50:57Z
2022-03-01T09:52:26Z,42.805,6.029,13.2996,4.60032,2470.6,2022-3-01T11:54:00Z
2022-03-01T09:55:29Z,42.805,6.029,13.2997,4.60031,2470.6,2022-3-01T11:57:03Z
2022-03-01T09:58:32Z,42.805,6.029,13.2998,4.60029,2470.553,2022-3-01T12:00:07Z
2022-03-01T10:01:35Z,42.805,6.029,13.2996,4.60031,2470.6,2022-3-01T12:03:10Z
2022-03-01T10:04:38Z,42.805,6.029,13.3000,4.60029,2470.553,2022-3-01T12:06:13Z
2022-03-01T10:07:41Z,42.805,6.029,13.2996,4.60029,2470.553,2022-3-01T12:09:16Z
2022-03-01T10:10:44Z,42.805,6.029,13.3000,4.60030,2470.577,2022-3-01T12:12:19Z
2022-03-01T10:13:47Z,42.805,6.029,13.2994,4.60030,2470.539,2022-3-01T12:15:22Z
2022-03-01T10:16:51Z,42.805,6.029,13.2996,4.60031,2470.553,2022-3-01T12:18:25Z
2022-03-01T10:19:54Z,42.805,6.029,13.3000,4.60029,2470.553,2022-3-01T12:21:28Z
2022-03-01T10:22:57Z,42.805,6.029,13.2997,4.60031,2470.614,2022-3-01T12:24:32Z
2022-03-01T10:26:00Z,42.805,6.029,13.3000,4.60030,2470.544,2022-3-01T12:27:35Z
2022-03-01T10:29:03Z,42.805,6.029,13.2998,4.60033,2470.544,2022-3-01T12:30:38Z
2022-03-01T10:32:06Z,42.805,6.029,13.2998,4.60029,2470.53,2022-3-01T12:33:41Z
2022-03-01T10:35:09Z,42.805,6.029,13.2993,4.60029,2470.53,2022-3-01T12:36:44Z
2022-03-01T10:38:12Z,42.805,6.029,13.2999,4.60029,2470.52,2022-3-01T12:39:47Z
2022-03-01T10:41:16Z,42.805,6.029,13.2996,4.60029,2470.553,2022-3-01T12:42:50Z
2022-03-01T10:44:19Z,42.805,6.029,13.2996,4.60031,2470.53,2022-3-01T12:45:53Z
2022-03-01T10:47:22Z,42.805,6.029,13.2998,4.60029,2470.553,2022-3-01T12:48:57Z
2022-03-01T10:50:25Z,42.805,6.029,13.2997,4.60030,2470.507,2022-3-01T12:52:00Z
2022-03-01T10:53:28Z,42.805,6.029,13.2998,4.60029,2470.553,2022-3-01T12:55:03Z
2022-03-01T10:56:31Z,42.805,6.029,13.3000,4.60029,2470.553,2022-3-01T12:58:06Z
2022-03-01T10:59:34Z,42.805,6.029,13.2998,4.60028,2470.53,2022-3-01T13:01:09Z
2022-03-01T11:02:37Z,42.805,6.029,13.2998,4.60031,2470.507,2022-3-01T13:04:12Z
2022-03-01T11:05:41Z,42.805,6.029,13.2998,4.60030,2470.544,2022-3-01T13:07:15Z
2022-03-01T11:08:44Z,42.805,6.029,13.2999,4.60029,2470.483,2022-3-01T13:10:18Z
2022-03-01T11:11:47Z,42.805,6.029,13.2999,4.60031,2470.544,2022-3-01T13:13:21Z
2022-03-01T11:14:50Z,42.805,6.029,13.3004,4.60029,2470.483,2022-3-01T13:16:25Z
2022-03-01T11:17:53Z,42.805,6.029,13.3000,4.60027,2470.507,2022-3-01T13:19:28Z
2022-03-01T11:20:56Z,42.805,6.029,13.2998,4.60030,2470.52,2022-3-01T13:22:31Z
2022-03-01T11:23:59Z,42.805,6.029,13.2999,4.60029,2470.507,2022-3-01T13:25:34Z
2022-03-01T11:27:02Z,42.805,6.029,13.2998,4.60033,2470.497,2022-3-01T13:28:37Z
2022-03-01T11:30:06Z,42.805,6.029,13.3001,4.60029,2470.52,2022-3-01T13:31:40Z
2022-03-01T11:33:09Z,42.805,6.029,13.2995,4.60029,2470.497,2022-3-01T13:34:43Z
2022-03-01T11:36:12Z,42.805,6.029,13.2997,4.60028,2470.497,2022-3-01T13:37:46Z
2022-03-01T11:39:15Z,42.805,6.029,13.2998,4.60028,2470.483,2022-3-01T13:40:50Z
2022-03-01T11:42:18Z,42.805,6.029,13.2998,4.60028,2470.483,2022-3-01T13:43:53Z
2022-03-01T11:45:21Z,42.805,6.029,13.2994,4.60028,2470.52,2022-3-01T13:46:56Z
2022-03-01T11:48:24Z,42.805,6.029,13.3001,4.60029,2470.483,2022-3-01T13:49:59Z
2022-03-01T11:51:27Z,42.805,6.029,13.2999,4.60027,2470.483,2022-3-01T13:53:02Z
2022-03-01T11:54:31Z,42.805,6.029,13.2997,4.60029,2470.53,2022-3-01T13:56:05Z
2022-03-01T11:57:34Z,42.805,6.029,13.2995,4.60029,2470.507,2022-3-01T13:59:08Z
2022-03-01T12:00:37Z,42.805,6.029,13.2998,4.60035,2470.474,2022-3-01T14:02:12Z
2022-03-01T12:03:40Z,42.805,6.029,13.2997,4.60029,2470.497,2022-3-01T14:05:15Z
2022-03-01T12:06:43Z,42.805,6.029,13.2996,4.60029,2470.483,2022-3-01T14:08:18Z
2022-03-01T12:09:46Z,42.805,6.029,13.2995,4.60032,2470.46,2022-3-01T14:11:21Z
2022-03-01T12:12:49Z,42.805,6.029,13.2997,4.60031,2470.46,2022-3-01T14:14:24Z
2022-03-01T12:15:52Z,42.805,6.029,13.2995,4.60028,2470.497,2022-3-01T14:17:27Z
2022-03-01T12:18:55Z,42.805,6.029,13.2997,4.60029,2470.46,2022-3-01T14:20:30Z
2022-03-01T12:21:59Z,42.805,6.029,13.2997,4.60029,2470.46,2022-3-01T14:23:33Z
2022-03-01T12:25:02Z,42.805,6.029,13.2998,4.60029,2470.497,2022-3-01T14:26:36Z
2022-03-01T12:28:05Z,42.805,6.029,13.2999,4.60031,2470.483,2022-3-01T14:29:40Z
2022-03-01T12:31:08Z,42.805,6.029,13.2996,4.60027,2470.45,2022-3-01T14:32:43Z
2022-03-01T12:34:11Z,42.805,6.029,13.2998,4.60027,2470.45,2022-3-01T14:35:46Z
2022-03-01T12:37:14Z,42.805,6.029,13.2998,4.60029,2470.474,2022-3-01T14:38:49Z
2022-03-01T12:40:17Z,42.805,6.029,13.3000,4.60026,2470.437,2022-3-01T14:41:52Z
2022-03-01T12:43:21Z,42.805,6.029,13.3000,4.60028,2470.427,2022-3-01T14:44:55Z
2022-03-01T12:46:24Z,42.805,6.029,13.2998,4.60027,2470.437,2022-3-01T14:47:58Z
2022-03-01T12:49:27Z,42.805,6.029,13.3002,4.60029,2470.437,2022-3-01T14:51:01Z
2022-03-01T12:52:30Z,42.805,6.029,13.2996,4.60031,2470.46,2022-3-01T14:54:05Z
2022-03-01T12:55:33Z,42.805,6.029,13.2998,4.60028,2470.437,2022-3-01T14:57:08Z
2022-03-01T12:58:36Z,42.805,6.029,13.2998,4.60027,2470.483,2022-3-01T15:00:11Z
2022-03-01T13:01:39Z,42.805,6.029,13.2999,4.60029,2470.46,2022-3-01T15:03:14Z
2022-03-01T13:04:42Z,42.805,6.029,13.3001,4.60031,2470.483,2022-3-01T15:06:17Z
2022-03-01T13:07:45Z,42.805,6.029,13.2997,4.60029,2470.413,2022-3-01T15:09:20Z
2022-03-01T13:10:49Z,42.805,6.029,13.2993,4.60031,2470.46,2022-3-01T15:12:23Z
2022-03-01T13:13:52Z,42.805,6.029,13.2999,4.60026,2470.474,2022-3-01T15:15:26Z
2022-03-01T13:16:55Z,42.805,6.029,13.2998,4.60027,2470.437,2022-3-01T15:18:30Z
2022-03-01T13:19:58Z,42.805,6.029,13.3002,4.60029,2470.437,2022-3-01T15:21:33Z
2022-03-01T13:23:01Z,42.805,6.029,13.2997,4.60030,2470.437,2022-3-01T15:24:36Z
2022-03-01T13:26:04Z,42.805,6.029,13.3007,4.60034,2470.45,2022-3-01T15:27:39Z
2022-03-01T13:29:07Z,42.805,6.029,13.2994,4.60028,2470.39,2022-3-01T15:30:42Z
2022-03-01T13:32:10Z,42.805,6.029,13.2998,4.60027,2470.437,2022-3-01T15:33:45Z
2022-03-01T13:35:14Z,42.805,6.029,13.3001,4.60027,2470.474,2022-3-01T15:36:48Z
2022-03-01T13:38:17Z,42.805,6.029,13.2999,4.60031,2470.413,2022-3-01T15:39:51Z
2022-03-01T13:41:20Z,42.805,6.029,13.2999,4.60035,2470.427,2022-3-01T15:42:55Z
2022-03-01T13:44:23Z,42.805,6.029,13.3002,4.60028,2470.413,2022-3-01T15:45:58Z
2022-03-01T13:47:26Z,42.805,6.029,13.3003,4.60028,2470.437,2022-3-01T15:49:01Z
2022-03-01T13:50:29Z,42.805,6.029,13.2997,4.60033,2470.437,2022-3-01T15:52:04Z
2022-03-01T13:53:32Z,42.805,6.029,13.2997,4.60034,2470.437,2022-3-01T15:55:07Z
2022-03-01T13:56:35Z,42.805,6.029,13.2998,4.60028,2470.413,2022-3-01T15:58:10Z
2022-03-01T13:59:39Z,42.805,6.029,13.2998,4.60027,2470.413,2022-3-01T16:01:13Z
2022-03-01T14:02:42Z,42.805,6.029,13.2998,4.60027,2470.427,2022-3-01T16:04:16Z
2022-03-01T14:05:45Z,42.805,6.029,13.3000,4.60031,2470.427,2022-3-01T16:07:20Z
2022-03-01T14:08:48Z,42.805,6.029,13.2998,4.60031,2470.437,2022-3-01T16:10:23Z
2022-03-01T14:11:51Z,42.805,6.029,13.2997,4.60027,2470.427,2022-3-01T16:13:26Z
2022-03-01T14:14:54Z,42.805,6.029,13.3001,4.60028,2470.413,2022-3-01T16:16:29Z
2022-03-01T14:17:57Z,42.805,6.029,13.2999,4.60028,2470.46,2022-3-01T16:19:32Z
2022-03-01T14:21:00Z,42.805,6.029,13.3004,4.60029,2470.437,2022-3-01T16:22:35Z
2022-03-01T14:24:04Z,42.805,6.029,13.2998,4.60032,2470.427,2022-3-01T16:25:38Z
2022-03-01T14:27:07Z,42.805,6.029,13.2995,4.60034,2470.39,2022-3-01T16:28:41Z
2022-03-01T14:30:10Z,42.805,6.029,13.3000,4.60029,2470.45,2022-3-01T16:31:45Z
2022-03-01T14:33:13Z,42.805,6.029,13.3003,4.60029,2470.413,2022-3-01T16:34:48Z
2022-03-01T14:36:16Z,42.805,6.029,13.2996,4.60028,2470.437,2022-3-01T16:37:51Z
2022-03-01T14:39:19Z,42.805,6.029,13.2998,4.60031,2470.437,2022-3-01T16:40:54Z
2022-03-01T14:42:22Z,42.805,6.029,13.3001,4.60028,2470.437,2022-3-01T16:43:57Z
2022-03-01T14:45:25Z,42.805,6.029,13.2996,4.60032,2470.437,2022-3-01T16:47:00Z
2022-03-01T14:48:29Z,42.805,6.029,13.3002,4.60028,2470.413,2022-3-01T16:50:03Z
2022-03-01T14:51:32Z,42.805,6.029,13.3000,4.60033,2470.474,2022-3-01T16:53:06Z
2022-03-01T14:54:35Z,42.805,6.029,13.2998,4.60031,2470.45,2022-3-01T16:56:09Z
2022-03-01T14:57:38Z,42.805,6.029,13.2999,4.60032,2470.437,2022-3-01T16:59:13Z
2022-03-01T15:00:41Z,42.805,6.029,13.2999,4.60031,2470.46,2022-3-01T17:02:16Z
2022-03-01T15:03:44Z,42.805,6.029,13.3000,4.60029,2470.483,2022-3-01T17:05:19Z
2022-03-01T15:06:47Z,42.805,6.029,13.2995,4.60031,2470.45,2022-3-01T17:08:22Z
2022-03-01T15:09:50Z,42.805,6.029,13.2996,4.60035,2470.437,2022-3-01T17:11:25Z
2022-03-01T15:12:53Z,42.805,6.029,13.2999,4.60038,2470.46,2022-3-01T17:14:28Z